Total_Precipitation_Accumulation
1.99 2.12 2.26 2.34 2.25 2.00 1.91 1.88 1.84 1.66 1.45 1.34 1.20 1.02 1.12 1.22 1.43 1.26 1.13 1.10 0.91 0.72 0.63 0.64 0.70 0.74 0.84 0.92 1.09 1.32 1.58 1.75 1.82 1.71 1.52 1.40 1.34 1.26
1.81 1.93 1.95 2.00 2.18 2.13 1.95 1.92 1.83 1.70 1.56 1.38 1.29 1.16 1.32 1.23 1.37 1.19 1.21 1.30 0.98 0.80 0.70 0.66 0.64 0.59 0.58 0.59 0.59 0.64 0.76 0.91 1.12 1.23 1.24 1.19 1.21 1.18
1.40 1.53 1.69 1.93 2.21 2.24 2.18 2.06 1.92 1.77 1.53 1.39 1.19 1.12 1.42 1.50 1.41 1.27 1.24 1.23 1.01 0.89 0.75 0.67 0.65 0.61 0.57 0.52 0.51 0.49 0.52 0.57 0.63 0.73 0.85 0.90 0.99 1.02
1.15 1.27 1.44 1.74 2.08 2.29 2.37 2.28 2.12 1.96 1.81 1.65 1.32 1.08 1.20 1.54 1.68 1.60 1.37 1.20 1.09 1.02 0.89 0.76 0.71 0.65 0.60 0.58 0.56 0.54 0.50 0.50 0.52 0.55 0.61 0.73 0.89 0.96
1.16 1.21 1.27 1.47 1.66 1.87 2.06 2.18 2.17 2.14 2.09 1.85 1.55 1.29 1.23 1.36 1.62 1.64 1.55 1.50 1.29 1.22 1.21 1.09 0.95 0.85 0.74 0.65 0.64 0.60 0.54 0.51 0.51 0.53 0.56 0.62 0.72 0.83
0.96 1.05 1.15 1.20 1.35 1.50 1.60 1.79 2.00 2.23 2.29 2.14 1.89 1.56 1.44 1.33 1.44 1.60 1.67 1.62 1.53 1.34 1.30 1.20 1.18 1.12 1.00 0.84 0.70 0.64 0.63 0.65 0.63 0.61 0.62 0.64 0.65 0.67
0.88 0.88 0.95 0.97 1.03 1.22 1.26 1.48 1.80 2.06 2.17 2.23 2.11 1.81 1.55 1.38 1.18 1.28 1.54 1.75 1.75 1.65 1.65 1.42 1.29 1.16 1.07 1.03 0.96 0.83 0.73 0.70 0.69 0.69 0.72 0.74 0.79 0.79
0.87 0.87 0.89 0.83 0.81 0.88 1.01 1.14 1.43 1.64 1.77 1.84 1.87 1.72 1.51 1.38 1.33 1.30 1.37 1.51 1.56 1.44 1.47 1.55 1.50 1.36 1.26 1.14 1.16 1.19 1.11 0.99 0.90 0.87 0.86 0.85 0.91 0.97
0.90 0.92 0.89 0.84 0.88 0.89 0.91 0.92 0.99 1.17 1.38 1.57 1.60 1.50 1.56 1.47 1.39 1.29 1.31 1.33 1.31 1.41 1.47 1.52 1.51 1.42 1.35 1.34 1.37 1.27 1.22 1.13 1.04 0.99 0.98 0.95 0.92 0.93
0.88 0.83 0.89 0.91 0.94 1.00 0.93 1.00 0.95 0.94 1.02 1.07 1.21 1.41 1.55 1.72 1.69 1.58 1.59 1.53 1.44 1.53 1.55 1.49 1.39 1.32 1.23 1.21 1.27 1.15 1.08 1.03 1.01 0.99 0.95 0.92 0.89 0.88
0.86 0.85 0.93 0.97 1.10 1.15 1.06 1.11 1.07 1.03 1.00 1.11 1.20 1.30 1.38 1.50 1.65 1.69 1.65 1.61 1.48 1.41 1.42 1.36 1.26 1.28 1.27 1.15 1.08 1.08 0.98 0.94 0.91 0.90 0.90 0.88 0.89 0.97
0.99 0.99 1.17 1.12 1.10 1.05 1.03 1.17 1.14 0.99 0.92 0.96 1.01 1.09 1.12 1.22 1.35 1.39 1.52 1.58 1.50 1.36 1.19 1.17 1.18 1.21 1.26 1.15 1.04 0.97 0.93 0.94 0.90 0.86 0.86 0.89 0.97 0.98
1.09 1.05 0.98 1.11 1.06 0.98 0.98 1.03 1.17 1.05 0.98 1.01 1.01 1.01 1.04 1.07 1.11 1.17 1.28 1.41 1.46 1.31 1.15 1.19 1.18 1.17 1.08 0.95 0.94 0.92 0.88 0.87 0.86 0.87 0.91 0.95 1.00 0.99
1.07 0.97 0.87 1.10 1.06 0.97 0.89 0.91 1.05 1.12 1.11 1.14 1.13 1.05 0.97 0.93 0.93 0.99 1.07 1.19 1.28 1.27 1.24 1.23 1.20 1.15 1.11 0.98 0.87 0.85 0.87 0.89 0.89 0.85 0.83 0.99 1.07 1.13
0.93 0.94 0.95 0.99 0.91 0.87 0.96 0.99 1.01 1.03 1.11 1.17 1.07 0.92 0.85 0.83 0.89 0.99 1.10 1.20 1.27 1.24 1.18 1.18 1.19 1.23 1.24 1.10 0.97 0.90 0.90 0.89 0.87 0.84 0.81 0.83 0.89 1.03
0.73 0.77 0.81 0.78 0.78 0.82 0.88 0.98 1.03 1.07 1.09 1.03 0.93 0.80 0.80 0.85 0.86 0.90 1.01 1.15 1.29 1.28 1.25 1.30 1.32 1.34 1.35 1.20 1.10 1.02 1.00 0.96 0.92 0.93 0.91 0.86 0.82 0.85
0.80 0.74 0.75 0.75 0.75 0.75 0.80 0.83 0.88 0.88 0.91 0.89 0.86 0.85 0.84 0.85 0.85 0.83 0.91 0.97 0.99 0.99 1.03 1.14 1.32 1.46 1.45 1.40 1.33 1.16 1.12 1.10 1.12 1.15 1.13 1.02 0.87 0.80
1.07 1.08 1.07 1.02 0.93 0.82 0.75 0.70 0.68 0.71 0.74 0.80 0.82 0.80 0.80 0.82 0.87 0.89 0.92 0.96 0.95 0.87 0.84 0.90 1.11 1.39 1.54 1.47 1.33 1.21 1.18 1.12 1.13 1.27 1.28 1.18 0.97 0.84
1.12 1.13 1.12 0.98 0.84 0.77 0.67 0.57 0.53 0.56 0.63 0.65 0.69 0.72 0.72 0.74 0.80 0.84 0.85 0.90 0.92 0.88 0.85 0.87 0.98 1.14 1.28 1.21 1.07 0.99 1.05 1.11 1.19 1.28 1.30 1.19 0.98 0.88
0.84 0.83 0.76 0.69 0.62 0.53 0.50 0.47 0.43 0.49 0.57 0.59 0.60 0.60 0.61 0.65 0.68 0.76 0.79 0.81 0.85 0.84 0.83 0.81 0.82 0.88 0.98 0.97 0.90 0.82 0.86 0.98 1.06 1.08 1.09 1.11 1.07 1.10
0.52 0.47 0.41 0.38 0.38 0.36 0.36 0.37 0.38 0.41 0.49 0.56 0.57 0.55 0.53 0.56 0.60 0.65 0.72 0.80 0.81 0.81 0.81 0.75 0.71 0.82 0.91 1.00 0.97 0.76 0.70 0.85 0.95 0.97 1.02 1.13 1.13 1.05
0.29 0.28 0.26 0.25 0.28 0.28 0.30 0.32 0.33 0.37 0.42 0.49 0.51 0.54 0.53 0.51 0.53 0.59 0.63 0.67 0.68 0.68 0.69 0.71 0.76 0.84 0.88 0.93 0.89 0.77 0.70 0.73 0.93 1.12 1.08 1.06 1.00 0.90
0.24 0.26 0.24 0.25 0.27 0.28 0.31 0.35 0.38 0.41 0.42 0.48 0.50 0.51 0.55 0.55 0.54 0.57 0.60 0.60 0.63 0.65 0.66 0.71 0.75 0.82 0.84 0.86 0.88 0.87 0.86 0.81 0.85 0.96 1.01 1.09 0.98 0.77